CN,EVAL_CN,ATTRIBUTE_NBR,STATECD,CREATED_BY,CREATED_DATE,CREATED_IN_INSTANCE,MODIFIED_BY,MODIFIED_DATE,MODIFIED_IN_INSTANCE
1465770525290487,1302315906290487,574062,25,MAHATFIELD,2023-09-13 06:19:19,290487,,,
1465770526290487,1302315906290487,574063,25,MAHATFIELD,2023-09-13 06:19:19,290487,,,
1465770527290487,1302315906290487,574064,25,MAHATFIELD,2023-09-13 06:19:19,290487,,,
1465770528290487,1302315906290487,574065,25,MAHATFIELD,2023-09-13 06:19:19,290487,,,
1465770529290487,1302315906290487,574066,25,MAHATFIELD,2023-09-13 06:19:19,290487,,,
1465770530290487,1302315906290487,574067,25,MAHATFIELD,2023-09-13 06:19:19,290487,,,
1465770531290487,1302315906290487,574068,25,MAHATFIELD,2023-09-13 06:19:19,290487,,,
1465770532290487,1302315906290487,574069,25,MAHATFIELD,2023-09-13 06:19:19,290487,,,
1465770533290487,1302315906290487,574070,25,MAHATFIELD,2023-09-13 06:19:19,290487,,,
1465770534290487,1302315906290487,574071,25,MAHATFIELD,2023-09-13 06:19:19,290487,,,
1465770535290487,1302315906290487,574072,25,MAHATFIELD,2023-09-13 06:19:19,290487,,,
1465770536290487,1302315906290487,574073,25,MAHATFIELD,2023-09-13 06:19:19,290487,,,
1465770537290487,1302315906290487,574074,25,MAHATFIELD,2023-09-13 06:19:19,290487,,,
1465770538290487,1302315906290487,574075,25,MAHATFIELD,2023-09-13 06:19:19,290487,,,
1465770539290487,1302315906290487,574076,25,MAHATFIELD,2023-09-13 06:19:19,290487,,,
1465770540290487,1302315906290487,574077,25,MAHATFIELD,2023-09-13 06:19:19,290487,,,
1465770541290487,1302315906290487,574078,25,MAHATFIELD,2023-09-13 06:19:19,290487,,,
1465770542290487,1302315906290487,574079,25,MAHATFIELD,2023-09-13 06:19:19,290487,,,
1465770543290487,1302315906290487,574080,25,MAHATFIELD,2023-09-13 06:19:19,290487,,,
1465770544290487,1302315906290487,574081,25,MAHATFIELD,2023-09-13 06:19:19,290487,,,
1465770548290487,1302315906290487,574085,25,MAHATFIELD,2023-09-13 06:19:19,290487,,,
1465770549290487,1302315906290487,574086,25,MAHATFIELD,2023-09-13 06:19:19,290487,,,
1465770550290487,1302315906290487,574087,25,MAHATFIELD,2023-09-13 06:19:19,290487,,,
1465770551290487,1302315906290487,574088,25,MAHATFIELD,2023-09-13 06:19:19,290487,,,
1465770552290487,1302315906290487,574089,25,MAHATFIELD,2023-09-13 06:19:19,290487,,,
1465770553290487,1302315906290487,574090,25,MAHATFIELD,2023-09-13 06:19:19,290487,,,
1465770554290487,1302315906290487,574091,25,MAHATFIELD,2023-09-13 06:19:19,290487,,,
1465770555290487,1302315906290487,574092,25,MAHATFIELD,2023-09-13 06:19:19,290487,,,
1465770556290487,1302315906290487,574093,25,MAHATFIELD,2023-09-13 06:19:19,290487,,,
1465770557290487,1302315906290487,574094,25,MAHATFIELD,2023-09-13 06:19:19,290487,,,
1465770558290487,1302315906290487,574095,25,MAHATFIELD,2023-09-13 06:19:19,290487,,,
1465770559290487,1302315906290487,574096,25,MAHATFIELD,2023-09-13 06:19:19,290487,,,
1465770560290487,1302315906290487,574097,25,MAHATFIELD,2023-09-13 06:19:19,290487,,,
1465770561290487,1302315906290487,574098,25,MAHATFIELD,2023-09-13 06:19:19,290487,,,
1465770562290487,1302315906290487,574099,25,MAHATFIELD,2023-09-13 06:19:19,290487,,,
1465770563290487,1302315906290487,574100,25,MAHATFIELD,2023-09-13 06:19:19,290487,,,
1465770564290487,1302315906290487,574101,25,MAHATFIELD,2023-09-13 06:19:19,290487,,,
1465770565290487,1302315906290487,574102,25,MAHATFIELD,2023-09-13 06:19:19,290487,,,
1465770566290487,1302315906290487,574103,25,MAHATFIELD,2023-09-13 06:19:19,290487,,,
1465770567290487,1302315906290487,574104,25,MAHATFIELD,2023-09-13 06:19:19,290487,,,
1465770568290487,1302315906290487,574105,25,MAHATFIELD,2023-09-13 06:19:19,290487,,,
1465770569290487,1302315906290487,574106,25,MAHATFIELD,2023-09-13 06:19:19,290487,,,
1465770570290487,1302315906290487,574107,25,MAHATFIELD,2023-09-13 06:19:19,290487,,,
1465770575290487,1302315906290487,574112,25,MAHATFIELD,2023-09-13 06:19:19,290487,,,
1465770572290487,1302315906290487,574109,25,MAHATFIELD,2023-09-13 06:19:19,290487,,,
1465770573290487,1302315906290487,574110,25,MAHATFIELD,2023-09-13 06:19:19,290487,,,
1465770574290487,1302315906290487,574111,25,MAHATFIELD,2023-09-13 06:19:19,290487,,,
1465770576290487,1302315906290487,574113,25,MAHATFIELD,2023-09-13 06:19:19,290487,,,
1465770577290487,1302315906290487,574114,25,MAHATFIELD,2023-09-13 06:19:19,290487,,,
1465770578290487,1302315906290487,574115,25,MAHATFIELD,2023-09-13 06:19:19,290487,,,
1465770579290487,1302315906290487,574116,25,MAHATFIELD,2023-09-13 06:19:19,290487,,,
1465770580290487,1302315906290487,574117,25,MAHATFIELD,2023-09-13 06:19:19,290487,,,
1465770581290487,1302315906290487,574118,25,MAHATFIELD,2023-09-13 06:19:19,290487,,,
1465770582290487,1302315906290487,574119,25,MAHATFIELD,2023-09-13 06:19:19,290487,,,
1465770583290487,1302315906290487,574120,25,MAHATFIELD,2023-09-13 06:19:19,290487,,,
1465770584290487,1302315906290487,574121,25,MAHATFIELD,2023-09-13 06:19:19,290487,,,
1465770585290487,1302315906290487,574122,25,MAHATFIELD,2023-09-13 06:19:19,290487,,,
1465770586290487,1302315906290487,574123,25,MAHATFIELD,2023-09-13 06:19:19,290487,,,
1465770587290487,1302315906290487,574124,25,MAHATFIELD,2023-09-13 06:19:19,290487,,,
1465770588290487,1302315906290487,574125,25,MAHATFIELD,2023-09-13 06:19:19,290487,,,
1465770589290487,1302315906290487,574126,25,MAHATFIELD,2023-09-13 06:19:19,290487,,,
1465770590290487,1302315906290487,574127,25,MAHATFIELD,2023-09-13 06:19:19,290487,,,
1465770591290487,1302315906290487,574128,25,MAHATFIELD,2023-09-13 06:19:19,290487,,,
1465770592290487,1302315906290487,574129,25,MAHATFIELD,2023-09-13 06:19:19,290487,,,
1465770593290487,1302315906290487,574130,25,MAHATFIELD,2023-09-13 06:19:19,290487,,,
1465770594290487,1302315906290487,574131,25,MAHATFIELD,2023-09-13 06:19:19,290487,,,
1465770595290487,1302315906290487,574132,25,MAHATFIELD,2023-09-13 06:19:19,290487,,,
1465770596290487,1302315906290487,574133,25,MAHATFIELD,2023-09-13 06:19:19,290487,,,
1465770597290487,1302315906290487,574134,25,MAHATFIELD,2023-09-13 06:19:19,290487,,,
1465770598290487,1302315906290487,574135,25,MAHATFIELD,2023-09-13 06:19:19,290487,,,
1465770599290487,1302315906290487,574136,25,MAHATFIELD,2023-09-13 06:19:19,290487,,,
1465770600290487,1302315906290487,574137,25,MAHATFIELD,2023-09-13 06:19:19,290487,,,
1465770601290487,1302315906290487,574138,25,MAHATFIELD,2023-09-13 06:19:19,290487,,,
1465770602290487,1302315906290487,574139,25,MAHATFIELD,2023-09-13 06:19:19,290487,,,
1465770196290487,1302315906290487,235,25,MAHATFIELD,2023-09-13 06:19:19,290487,,,
1465770197290487,1302315906290487,236,25,MAHATFIELD,2023-09-13 06:19:19,290487,,,
1465770198290487,1302315906290487,238,25,MAHATFIELD,2023-09-13 06:19:19,290487,,,
1465770199290487,1302315906290487,239,25,MAHATFIELD,2023-09-13 06:19:19,290487,,,
1465770200290487,1302315906290487,240,25,MAHATFIELD,2023-09-13 06:19:19,290487,,,
1465770201290487,1302315906290487,241,25,MAHATFIELD,2023-09-13 06:19:19,290487,,,
1465770202290487,1302315906290487,242,25,MAHATFIELD,2023-09-13 06:19:19,290487,,,
1465770203290487,1302315906290487,244,25,MAHATFIELD,2023-09-13 06:19:19,290487,,,
1465770204290487,1302315906290487,245,25,MAHATFIELD,2023-09-13 06:19:19,290487,,,
1465770205290487,1302315906290487,246,25,MAHATFIELD,2023-09-13 06:19:19,290487,,,
1465770206290487,1302315906290487,247,25,MAHATFIELD,2023-09-13 06:19:19,290487,,,
1465770195290487,1302315906290487,234,25,MAHATFIELD,2023-09-13 06:19:19,290487,,,
1465770207290487,1302315906290487,248,25,MAHATFIELD,2023-09-13 06:19:19,290487,,,
1465770208290487,1302315906290487,250,25,MAHATFIELD,2023-09-13 06:19:19,290487,,,
1465770209290487,1302315906290487,251,25,MAHATFIELD,2023-09-13 06:19:19,290487,,,
1465770210290487,1302315906290487,252,25,MAHATFIELD,2023-09-13 06:19:19,290487,,,
1465770211290487,1302315906290487,253,25,MAHATFIELD,2023-09-13 06:19:19,290487,,,
1465770212290487,1302315906290487,254,25,MAHATFIELD,2023-09-13 06:19:19,290487,,,
1465770213290487,1302315906290487,256,25,MAHATFIELD,2023-09-13 06:19:19,290487,,,
1465770214290487,1302315906290487,257,25,MAHATFIELD,2023-09-13 06:19:19,290487,,,
1465770215290487,1302315906290487,258,25,MAHATFIELD,2023-09-13 06:19:19,290487,,,
1465770216290487,1302315906290487,259,25,MAHATFIELD,2023-09-13 06:19:19,290487,,,
1465770217290487,1302315906290487,260,25,MAHATFIELD,2023-09-13 06:19:19,290487,,,
1465770218290487,1302315906290487,311,25,MAHATFIELD,2023-09-13 06:19:19,290487,,,
1465770219290487,1302315906290487,312,25,MAHATFIELD,2023-09-13 06:19:19,290487,,,
1465770220290487,1302315906290487,313,25,MAHATFIELD,2023-09-13 06:19:19,290487,,,
1465770221290487,1302315906290487,314,25,MAHATFIELD,2023-09-13 06:19:19,290487,,,
1465770222290487,1302315906290487,315,25,MAHATFIELD,2023-09-13 06:19:19,290487,,,
1465770223290487,1302315906290487,316,25,MAHATFIELD,2023-09-13 06:19:19,290487,,,
1465770224290487,1302315906290487,317,25,MAHATFIELD,2023-09-13 06:19:19,290487,,,
1465770225290487,1302315906290487,318,25,MAHATFIELD,2023-09-13 06:19:19,290487,,,
1465770226290487,1302315906290487,319,25,MAHATFIELD,2023-09-13 06:19:19,290487,,,
1465770227290487,1302315906290487,320,25,MAHATFIELD,2023-09-13 06:19:19,290487,,,
1465770228290487,1302315906290487,321,25,MAHATFIELD,2023-09-13 06:19:19,290487,,,
1465770229290487,1302315906290487,322,25,MAHATFIELD,2023-09-13 06:19:19,290487,,,
1465770230290487,1302315906290487,335,25,MAHATFIELD,2023-09-13 06:19:19,290487,,,
1465770231290487,1302315906290487,336,25,MAHATFIELD,2023-09-13 06:19:19,290487,,,
1465770232290487,1302315906290487,337,25,MAHATFIELD,2023-09-13 06:19:19,290487,,,
1465770233290487,1302315906290487,338,25,MAHATFIELD,2023-09-13 06:19:19,290487,,,
1465770319290487,1302315906290487,1314,25,MAHATFIELD,2023-09-13 06:19:19,290487,,,
1465770320290487,1302315906290487,1315,25,MAHATFIELD,2023-09-13 06:19:19,290487,,,
1465770321290487,1302315906290487,1316,25,MAHATFIELD,2023-09-13 06:19:19,290487,,,
1465770322290487,1302315906290487,1317,25,MAHATFIELD,2023-09-13 06:19:19,290487,,,
1465770323290487,1302315906290487,1318,25,MAHATFIELD,2023-09-13 06:19:19,290487,,,
1465770324290487,1302315906290487,1319,25,MAHATFIELD,2023-09-13 06:19:19,290487,,,
1465770275290487,1302315906290487,446,25,MAHATFIELD,2023-09-13 06:19:19,290487,,,
1465770276290487,1302315906290487,447,25,MAHATFIELD,2023-09-13 06:19:19,290487,,,
1465770277290487,1302315906290487,448,25,MAHATFIELD,2023-09-13 06:19:19,290487,,,
1465770278290487,1302315906290487,901,25,MAHATFIELD,2023-09-13 06:19:19,290487,,,
1465770279290487,1302315906290487,902,25,MAHATFIELD,2023-09-13 06:19:19,290487,,,
1465770280290487,1302315906290487,903,25,MAHATFIELD,2023-09-13 06:19:19,290487,,,
1465770325290487,1302315906290487,1320,25,MAHATFIELD,2023-09-13 06:19:19,290487,,,
1465770326290487,1302315906290487,1321,25,MAHATFIELD,2023-09-13 06:19:19,290487,,,
1465770327290487,1302315906290487,1322,25,MAHATFIELD,2023-09-13 06:19:19,290487,,,
1465770328290487,1302315906290487,2202,25,MAHATFIELD,2023-09-13 06:19:19,290487,,,
1465770329290487,1302315906290487,2203,25,MAHATFIELD,2023-09-13 06:19:19,290487,,,
1465770330290487,1302315906290487,2204,25,MAHATFIELD,2023-09-13 06:19:19,290487,,,
1465770331290487,1302315906290487,2205,25,MAHATFIELD,2023-09-13 06:19:19,290487,,,
1465770332290487,1302315906290487,2206,25,MAHATFIELD,2023-09-13 06:19:19,290487,,,
1465770333290487,1302315906290487,2208,25,MAHATFIELD,2023-09-13 06:19:19,290487,,,
1465770334290487,1302315906290487,2209,25,MAHATFIELD,2023-09-13 06:19:19,290487,,,
1465770335290487,1302315906290487,2210,25,MAHATFIELD,2023-09-13 06:19:19,290487,,,
1465770336290487,1302315906290487,2211,25,MAHATFIELD,2023-09-13 06:19:19,290487,,,
1465770337290487,1302315906290487,2212,25,MAHATFIELD,2023-09-13 06:19:19,290487,,,
1465770338290487,1302315906290487,2311,25,MAHATFIELD,2023-09-13 06:19:19,290487,,,
1465770339290487,1302315906290487,2312,25,MAHATFIELD,2023-09-13 06:19:19,290487,,,
1465770340290487,1302315906290487,2313,25,MAHATFIELD,2023-09-13 06:19:19,290487,,,
1465770341290487,1302315906290487,2314,25,MAHATFIELD,2023-09-13 06:19:19,290487,,,
1465770342290487,1302315906290487,2315,25,MAHATFIELD,2023-09-13 06:19:19,290487,,,
1465770343290487,1302315906290487,2316,25,MAHATFIELD,2023-09-13 06:19:19,290487,,,
1465770344290487,1302315906290487,2317,25,MAHATFIELD,2023-09-13 06:19:19,290487,,,
1465770345290487,1302315906290487,2318,25,MAHATFIELD,2023-09-13 06:19:19,290487,,,
1465770346290487,1302315906290487,2319,25,MAHATFIELD,2023-09-13 06:19:19,290487,,,
1465770347290487,1302315906290487,2320,25,MAHATFIELD,2023-09-13 06:19:19,290487,,,
1465770348290487,1302315906290487,2321,25,MAHATFIELD,2023-09-13 06:19:19,290487,,,
1465770349290487,1302315906290487,2322,25,MAHATFIELD,2023-09-13 06:19:19,290487,,,
1465770350290487,1302315906290487,2635,25,MAHATFIELD,2023-09-13 06:19:19,290487,,,
1465770351290487,1302315906290487,2636,25,MAHATFIELD,2023-09-13 06:19:19,290487,,,
1465770352290487,1302315906290487,2637,25,MAHATFIELD,2023-09-13 06:19:19,290487,,,
1465770353290487,1302315906290487,2638,25,MAHATFIELD,2023-09-13 06:19:19,290487,,,
1465770354290487,1302315906290487,2639,25,MAHATFIELD,2023-09-13 06:19:19,290487,,,
1465770355290487,1302315906290487,2640,25,MAHATFIELD,2023-09-13 06:19:19,290487,,,
1465770356290487,1302315906290487,2641,25,MAHATFIELD,2023-09-13 06:19:19,290487,,,
1465770357290487,1302315906290487,2642,25,MAHATFIELD,2023-09-13 06:19:19,290487,,,
1465770358290487,1302315906290487,2649,25,MAHATFIELD,2023-09-13 06:19:19,290487,,,
1465770359290487,1302315906290487,2650,25,MAHATFIELD,2023-09-13 06:19:19,290487,,,
1465770360290487,1302315906290487,2651,25,MAHATFIELD,2023-09-13 06:19:19,290487,,,
1465770361290487,1302315906290487,2652,25,MAHATFIELD,2023-09-13 06:19:19,290487,,,
1465770362290487,1302315906290487,2653,25,MAHATFIELD,2023-09-13 06:19:19,290487,,,
1465770363290487,1302315906290487,2654,25,MAHATFIELD,2023-09-13 06:19:19,290487,,,
1465770364290487,1302315906290487,2661,25,MAHATFIELD,2023-09-13 06:19:19,290487,,,
1465770365290487,1302315906290487,2662,25,MAHATFIELD,2023-09-13 06:19:19,290487,,,
1465770366290487,1302315906290487,2665,25,MAHATFIELD,2023-09-13 06:19:19,290487,,,
1465770367290487,1302315906290487,2667,25,MAHATFIELD,2023-09-13 06:19:19,290487,,,
1465770368290487,1302315906290487,2668,25,MAHATFIELD,2023-09-13 06:19:19,290487,,,
1465770369290487,1302315906290487,2669,25,MAHATFIELD,2023-09-13 06:19:19,290487,,,
1465770370290487,1302315906290487,2674,25,MAHATFIELD,2023-09-13 06:19:19,290487,,,
1465770371290487,1302315906290487,2675,25,MAHATFIELD,2023-09-13 06:19:19,290487,,,
1465770372290487,1302315906290487,2676,25,MAHATFIELD,2023-09-13 06:19:19,290487,,,
1465770373290487,1302315906290487,2677,25,MAHATFIELD,2023-09-13 06:19:19,290487,,,
1465770374290487,1302315906290487,2680,25,MAHATFIELD,2023-09-13 06:19:19,290487,,,
1465770281290487,1302315906290487,904,25,MAHATFIELD,2023-09-13 06:19:19,290487,,,
1465770282290487,1302315906290487,905,25,MAHATFIELD,2023-09-13 06:19:19,290487,,,
1465770283290487,1302315906290487,906,25,MAHATFIELD,2023-09-13 06:19:19,290487,,,
1465770284290487,1302315906290487,907,25,MAHATFIELD,2023-09-13 06:19:19,290487,,,
1465770285290487,1302315906290487,908,25,MAHATFIELD,2023-09-13 06:19:19,290487,,,
1465770286290487,1302315906290487,909,25,MAHATFIELD,2023-09-13 06:19:19,290487,,,
1465770287290487,1302315906290487,910,25,MAHATFIELD,2023-09-13 06:19:19,290487,,,
1465770288290487,1302315906290487,911,25,MAHATFIELD,2023-09-13 06:19:19,290487,,,
1465770289290487,1302315906290487,912,25,MAHATFIELD,2023-09-13 06:19:19,290487,,,
1465770290290487,1302315906290487,913,25,MAHATFIELD,2023-09-13 06:19:19,290487,,,
1465770291290487,1302315906290487,914,25,MAHATFIELD,2023-09-13 06:19:19,290487,,,
1465770292290487,1302315906290487,915,25,MAHATFIELD,2023-09-13 06:19:19,290487,,,
1465770293290487,1302315906290487,916,25,MAHATFIELD,2023-09-13 06:19:19,290487,,,
1465770294290487,1302315906290487,917,25,MAHATFIELD,2023-09-13 06:19:19,290487,,,
1465770295290487,1302315906290487,918,25,MAHATFIELD,2023-09-13 06:19:19,290487,,,
1465770296290487,1302315906290487,919,25,MAHATFIELD,2023-09-13 06:19:19,290487,,,
1465770297290487,1302315906290487,920,25,MAHATFIELD,2023-09-13 06:19:19,290487,,,
1465770298290487,1302315906290487,921,25,MAHATFIELD,2023-09-13 06:19:19,290487,,,
1465770299290487,1302315906290487,922,25,MAHATFIELD,2023-09-13 06:19:19,290487,,,
1465770300290487,1302315906290487,923,25,MAHATFIELD,2023-09-13 06:19:19,290487,,,
1465770301290487,1302315906290487,924,25,MAHATFIELD,2023-09-13 06:19:19,290487,,,
1465770302290487,1302315906290487,953,25,MAHATFIELD,2023-09-13 06:19:19,290487,,,
1465770303290487,1302315906290487,956,25,MAHATFIELD,2023-09-13 06:19:19,290487,,,
1465770304290487,1302315906290487,1022,25,MAHATFIELD,2023-09-13 06:19:19,290487,,,
1465770305290487,1302315906290487,1023,25,MAHATFIELD,2023-09-13 06:19:19,290487,,,
1465770306290487,1302315906290487,1202,25,MAHATFIELD,2023-09-13 06:19:19,290487,,,
1465770307290487,1302315906290487,1203,25,MAHATFIELD,2023-09-13 06:19:19,290487,,,
1465770308290487,1302315906290487,1204,25,MAHATFIELD,2023-09-13 06:19:19,290487,,,
1465770309290487,1302315906290487,1205,25,MAHATFIELD,2023-09-13 06:19:19,290487,,,
1465770375290487,1302315906290487,2681,25,MAHATFIELD,2023-09-13 06:19:19,290487,,,
1465770376290487,1302315906290487,2682,25,MAHATFIELD,2023-09-13 06:19:19,290487,,,
1465770377290487,1302315906290487,2683,25,MAHATFIELD,2023-09-13 06:19:19,290487,,,
1465770378290487,1302315906290487,11087,25,MAHATFIELD,2023-09-13 06:19:19,290487,,,
1465770379290487,1302315906290487,11088,25,MAHATFIELD,2023-09-13 06:19:19,290487,,,
1465770380290487,1302315906290487,11089,25,MAHATFIELD,2023-09-13 06:19:19,290487,,,
1465770381290487,1302315906290487,11090,25,MAHATFIELD,2023-09-13 06:19:19,290487,,,
1465770382290487,1302315906290487,11091,25,MAHATFIELD,2023-09-13 06:19:19,290487,,,
1465770383290487,1302315906290487,11092,25,MAHATFIELD,2023-09-13 06:19:19,290487,,,
1465770384290487,1302315906290487,11093,25,MAHATFIELD,2023-09-13 06:19:19,290487,,,
1465770385290487,1302315906290487,11094,25,MAHATFIELD,2023-09-13 06:19:19,290487,,,
1465770386290487,1302315906290487,11095,25,MAHATFIELD,2023-09-13 06:19:19,290487,,,
1465770387290487,1302315906290487,11096,25,MAHATFIELD,2023-09-13 06:19:19,290487,,,
1465770388290487,1302315906290487,11097,25,MAHATFIELD,2023-09-13 06:19:19,290487,,,
1465770389290487,1302315906290487,11098,25,MAHATFIELD,2023-09-13 06:19:19,290487,,,
1465770390290487,1302315906290487,11099,25,MAHATFIELD,2023-09-13 06:19:19,290487,,,
1465770391290487,1302315906290487,11100,25,MAHATFIELD,2023-09-13 06:19:19,290487,,,
1465770392290487,1302315906290487,11101,25,MAHATFIELD,2023-09-13 06:19:19,290487,,,
1465770393290487,1302315906290487,11102,25,MAHATFIELD,2023-09-13 06:19:19,290487,,,
1465770310290487,1302315906290487,1206,25,MAHATFIELD,2023-09-13 06:19:19,290487,,,
1465770311290487,1302315906290487,1208,25,MAHATFIELD,2023-09-13 06:19:19,290487,,,
1465770312290487,1302315906290487,1209,25,MAHATFIELD,2023-09-13 06:19:19,290487,,,
1465770313290487,1302315906290487,1210,25,MAHATFIELD,2023-09-13 06:19:19,290487,,,
1465770394290487,1302315906290487,11103,25,MAHATFIELD,2023-09-13 06:19:19,290487,,,
1465770395290487,1302315906290487,11104,25,MAHATFIELD,2023-09-13 06:19:19,290487,,,
1465770396290487,1302315906290487,11105,25,MAHATFIELD,2023-09-13 06:19:19,290487,,,
1465770397290487,1302315906290487,11106,25,MAHATFIELD,2023-09-13 06:19:19,290487,,,
1465770398290487,1302315906290487,11107,25,MAHATFIELD,2023-09-13 06:19:19,290487,,,
1465770399290487,1302315906290487,11108,25,MAHATFIELD,2023-09-13 06:19:19,290487,,,
1465770400290487,1302315906290487,11109,25,MAHATFIELD,2023-09-13 06:19:19,290487,,,
1465770401290487,1302315906290487,11110,25,MAHATFIELD,2023-09-13 06:19:19,290487,,,
1465770402290487,1302315906290487,11111,25,MAHATFIELD,2023-09-13 06:19:19,290487,,,
1465770403290487,1302315906290487,11112,25,MAHATFIELD,2023-09-13 06:19:19,290487,,,
1465770404290487,1302315906290487,11113,25,MAHATFIELD,2023-09-13 06:19:19,290487,,,
1465770405290487,1302315906290487,11114,25,MAHATFIELD,2023-09-13 06:19:19,290487,,,
1465770406290487,1302315906290487,11143,25,MAHATFIELD,2023-09-13 06:19:19,290487,,,
1465770407290487,1302315906290487,11144,25,MAHATFIELD,2023-09-13 06:19:19,290487,,,
1465770314290487,1302315906290487,1211,25,MAHATFIELD,2023-09-13 06:19:19,290487,,,
1465770315290487,1302315906290487,1212,25,MAHATFIELD,2023-09-13 06:19:19,290487,,,
1465770316290487,1302315906290487,1311,25,MAHATFIELD,2023-09-13 06:19:19,290487,,,
1465770408290487,1302315906290487,11145,25,MAHATFIELD,2023-09-13 06:19:19,290487,,,
1465770409290487,1302315906290487,11146,25,MAHATFIELD,2023-09-13 06:19:19,290487,,,
1465770410290487,1302315906290487,11147,25,MAHATFIELD,2023-09-13 06:19:19,290487,,,
1465770411290487,1302315906290487,11148,25,MAHATFIELD,2023-09-13 06:19:19,290487,,,
1465770412290487,1302315906290487,11149,25,MAHATFIELD,2023-09-13 06:19:19,290487,,,
1465770413290487,1302315906290487,11150,25,MAHATFIELD,2023-09-13 06:19:19,290487,,,
1465770414290487,1302315906290487,11151,25,MAHATFIELD,2023-09-13 06:19:19,290487,,,
1465770415290487,1302315906290487,11152,25,MAHATFIELD,2023-09-13 06:19:19,290487,,,
1465770416290487,1302315906290487,11153,25,MAHATFIELD,2023-09-13 06:19:19,290487,,,
1465770417290487,1302315906290487,11154,25,MAHATFIELD,2023-09-13 06:19:19,290487,,,
1465770418290487,1302315906290487,11155,25,MAHATFIELD,2023-09-13 06:19:19,290487,,,
1465770419290487,1302315906290487,11156,25,MAHATFIELD,2023-09-13 06:19:19,290487,,,
1465770420290487,1302315906290487,11157,25,MAHATFIELD,2023-09-13 06:19:19,290487,,,
1465770317290487,1302315906290487,1312,25,MAHATFIELD,2023-09-13 06:19:19,290487,,,
1465770318290487,1302315906290487,1313,25,MAHATFIELD,2023-09-13 06:19:19,290487,,,
1465770421290487,1302315906290487,11158,25,MAHATFIELD,2023-09-13 06:19:19,290487,,,
1465770422290487,1302315906290487,11159,25,MAHATFIELD,2023-09-13 06:19:19,290487,,,
1465770423290487,1302315906290487,11160,25,MAHATFIELD,2023-09-13 06:19:19,290487,,,
1465770424290487,1302315906290487,11161,25,MAHATFIELD,2023-09-13 06:19:19,290487,,,
1465770425290487,1302315906290487,11162,25,MAHATFIELD,2023-09-13 06:19:19,290487,,,
1465770426290487,1302315906290487,11163,25,MAHATFIELD,2023-09-13 06:19:19,290487,,,
1465770427290487,1302315906290487,11164,25,MAHATFIELD,2023-09-13 06:19:19,290487,,,
1465770428290487,1302315906290487,11165,25,MAHATFIELD,2023-09-13 06:19:19,290487,,,
1465770429290487,1302315906290487,11166,25,MAHATFIELD,2023-09-13 06:19:19,290487,,,
1465770430290487,1302315906290487,11167,25,MAHATFIELD,2023-09-13 06:19:19,290487,,,
1465770431290487,1302315906290487,11168,25,MAHATFIELD,2023-09-13 06:19:19,290487,,,
1465770432290487,1302315906290487,11169,25,MAHATFIELD,2023-09-13 06:19:19,290487,,,
1465770433290487,1302315906290487,11170,25,MAHATFIELD,2023-09-13 06:19:19,290487,,,
1465770434290487,1302315906290487,11185,25,MAHATFIELD,2023-09-13 06:19:19,290487,,,
1465770435290487,1302315906290487,11186,25,MAHATFIELD,2023-09-13 06:19:19,290487,,,
1465770436290487,1302315906290487,11187,25,MAHATFIELD,2023-09-13 06:19:19,290487,,,
1465770437290487,1302315906290487,11188,25,MAHATFIELD,2023-09-13 06:19:19,290487,,,
1465770438290487,1302315906290487,11189,25,MAHATFIELD,2023-09-13 06:19:19,290487,,,
1465770439290487,1302315906290487,11190,25,MAHATFIELD,2023-09-13 06:19:19,290487,,,
1465770440290487,1302315906290487,11191,25,MAHATFIELD,2023-09-13 06:19:19,290487,,,
1465770441290487,1302315906290487,11192,25,MAHATFIELD,2023-09-13 06:19:19,290487,,,
1465770442290487,1302315906290487,11193,25,MAHATFIELD,2023-09-13 06:19:19,290487,,,
1465770443290487,1302315906290487,11194,25,MAHATFIELD,2023-09-13 06:19:19,290487,,,